Scroll down
FLIGHT INFORMATION
Southwest Airlines

SWA480

At Arrival Gate

KCOS
 KPHX
DATE: 2021-05-08
GATE: 1
GATE DEPARTURE: 13:40
TAKEOFF: 13:58
DATE: 2021-05-08
GATE:  -
LANDING: 15:29
GATE ARRIVAL: 15:38
FLIGHT DATA
Crew: 
Speed: 
460 kts
Altitude: 
38,113 ft
Stage Length: 
479.0 nm
Block Time: 
1.9 hrs
Flight Time: 
1.5 hrs
Fuel Used: 
8,621 lb
Cleared Route: KCOS BRK DRAKE PUB ALS RGINA PUMPS GUP KPHX
TRACK DATA
50,000 ft 1,000 kts
AIRCRAFT INFO AND CUMULATIVE STATS
Aircraft Type: 
B737BW
Registration: 
SELCAL: 
MSN/LN: 
33923 / 2083
Operator: 
Total Flights: 
7
Total Block Time: 
17.7 hrs
Total Flight Time: 
16.4 hrs
Total Fuel Used: 
69,326 lb
DATALINK LOG | Newest first | Current as of: 2022-08-16 17:05:41
LABEL SEQUENCE CONTENT Dn/Up
QD423915:38 8▼ Dn
QC343115:29▼ Dn
2U0724KPHX 071451Z 00000KT 10SM CLR 26/00 A2994 RMK AO2 SLP118 T02610000 51014▲ Up
2S1215KPHX▼ Dn
2U0228KPHX 080251Z 26010KT 10SM FEW200 FEW290 33/M03 A2973 RMK AO2 SLP050 T03281028 55008▲ Up
2S0711KPHX▼ Dn
QB504413:58▼ Dn
QA332813:40 16.6▼ Dn
A34124CLEARED TO KPHX VIA BRK V83 PUB ALS J102 GUP EAGUL6. SQUAWK 0007.▲ Up
Q04013[LINK ACK]▲ Up
Q04013[LINK TEST]▼ Dn


AIRCRAFT HISTORY
FLIGHT DATE FLIGHT NO. ORIGIN DESTINATION CLEARED ROUTE BLOCK TIME FLIGHT TIME FUEL USED PILOT
2022-02-08SWA1160KMDW KSNA KMDW PEKUE PIGGG QUANE CARET ROEZZ GCK CIM GUP KEYKE DRK HIMDU WEELL WURMO THERS FOVOL DRTHI CHURO BRCKK ROADE PHIYA DSNEE JWARD HUKEM RW20R4.3 hrs4.1 hrs21,555 lbDan Downs
2021-07-07SWA4916KPHX KMDW KPHX ABQ FTI KK42Y MCI IRK KMDW3.1 hrs3 hrs16,482 lbAlex K.
2021-07-03SWA6090KLAS KPHX KLAS ZAYNE WOTRO KPHX0.9 hrs0.7 hrs4,793 lbAlex K.
2021-07-03SWA4302KPHX KLAS KPHX RRSTA ELLDA KLAS0.8 hrs0.7 hrs4,129 lbAlex K.
2021-05-08SWA480KCOS KPHX KCOS BRK DRAKE PUB ALS RGINA PUMPS GUP KPHX1.9 hrs1.5 hrs8,621 lbMike Dryden
2021-05-02SWA2554KDAL KCOS KDAL HUDAD PNH TBE KCOS1.8 hrs1.6 hrs9,182 lbMike Dryden
2020-09-10SWA36KHOU KDAL KHOU MAJKK KDAL4.9 hrs4.8 hrs4,564 lbAlex K.